GW6774 Weather Reports


time (UTC)temp
C
wind
direction
speed
KPH
gust
KPH
rain 1hr
cm
rain 24hr
cm
rain mn
cm
humidity
%
barometer
mb
20260506051403 18 219 0.0 0.0 0.00 0.00 0.00 59 1012.9
20260506050604 18 219 0.0 0.0 0.00 0.00 0.00 59 1013.0
20260506045105 18 199 0.0 0.0 0.00 0.00 0.00 59 1013.1
20260506044601 18 149 0.0 0.0 0.00 0.00 0.00 59 1013.1
20260506044101 18 149 0.0 0.0 0.00 0.00 0.00 60 1012.9
20260506043917 18 147 0.0 0.0 0.00 0.00 0.00 59 1013.1
20260506043100 18 147 0.0 1.6 0.00 0.00 0.00 59 1013.2
20260506042600 18 147 0.0 1.6 0.00 0.00 0.00 60 1013.1
20260506042054 18 276 0.0 0.0 0.00 0.00 0.00 59 1013.2
20260506041851 18 276 0.0 0.0 0.00 0.00 0.00 59 1013.1
20260506041053 18 276 0.0 0.0 0.00 0.00 0.00 59 1013.4
20260506040904 18 276 0.0 0.0 0.00 0.00 0.00 59 1013.3
20260506040048 18 276 0.0 0.0 0.00 0.00 0.00 58 1013.3
20260506035538 18 276 0.0 0.0 0.00 0.00 0.00 57 1013.4
20260506035037 18 276 0.0 0.0 0.00 0.00 0.00 59 1013.5
20260506034536 18 276 0.0 0.0 0.00 0.00 0.00 59 1013.5
20260506034034 18 276 0.0 0.0 0.00 0.00 0.00 57 1013.3
20260506033536 18 276 0.0 1.6 0.00 0.00 0.00 56 1013.3
20260506033034 18 276 0.0 1.6 0.00 0.00 0.00 56 1013.4
20260506032532 19 276 0.0 0.0 0.00 0.00 0.00 56 1013.4
20260506032029 19 276 0.0 1.6 0.00 0.00 0.00 57 1013.3
20260506031530 19 276 0.0 3.2 0.00 0.00 0.00 56 1013.2
20260506031029 19 305 0.0 3.2 0.00 0.00 0.00 56 1013.3
20260506030530 19 268 0.0 3.2 0.00 0.00 0.00 56 1013.3
20260506030156 20 268 0.0 3.2 0.00 0.00 0.00 56 1013.4
20260506030128 19 268 0.0 3.2 0.00 0.00 0.00 57 1013.2
20260506025030 20 271 0.0 3.2 0.00 0.00 0.00 56 1013.3
20260506024522 20 271 0.0 3.2 0.00 0.00 0.00 55 1013.3
20260506024017 20 271 0.0 3.2 0.00 0.00 0.00 56 1013.4
20260506023636 20 240 0.0 3.2 0.00 0.00 0.00 56 1013.3
20260506023607 20 240 0.0 3.2 0.00 0.00 0.00 57 1013.2
20260506022515 20 240 0.0 3.2 0.00 0.00 0.00 55 1013.1
20260506022016 20 240 0.0 3.2 0.00 0.00 0.00 54 1013.2
20260506021515 20 240 0.0 1.6 0.00 0.00 0.00 54 1013.1
20260506021327 20 240 0.0 1.6 0.00 0.00 0.00 55 1013.2
20260506020514 20 212 0.0 3.2 0.00 0.00 0.00 55 1013.1
20260506020012 20 212 0.0 3.2 0.00 0.00 0.00 55 1013.2
20260506015513 20 204 0.0 3.2 0.00 0.00 0.00 55 1013.2
20260506015012 20 202 0.0 3.2 0.00 0.00 0.00 55 1013.0
20260506014511 20 200 0.0 3.2 0.00 0.00 0.00 55 1013.0
20260506014012 20 200 0.0 3.2 0.00 0.00 0.00 53 1013.0
20260506013507 20 192 0.0 0.0 0.00 0.00 0.00 53 1012.8
20260506013406 20 192 0.0 0.0 0.00 0.00 0.00 51 1012.7
20260506013400 20 192 0.0 0.0 0.00 0.00 0.00 52 1012.9
20260506012002 21 192 0.0 0.0 0.00 0.00 0.00 51 1012.7
20260506011501 21 192 0.0 0.0 0.00 0.00 0.00 51 1012.7
20260506011255 21 192 0.0 0.0 0.00 0.00 0.00 51 1012.6
20260506010808 21 192 0.0 0.0 0.00 0.00 0.00 51 1012.8
20260506010001 21 192 0.0 0.0 0.00 0.00 0.00 50 1012.8
20260506005502 21 192 0.0 0.0 0.00 0.00 0.00 49 1013.0
20260506005256 21 192 0.0 1.6 0.00 0.00 0.00 49 1012.9
20260506004756 21 192 0.0 1.6 0.00 0.00 0.00 49 1012.8
20260506004002 21 192 0.0 1.6 0.00 0.00 0.00 48 1012.7
20260506003503 21 192 0.0 1.6 0.00 0.00 0.00 48 1012.7
20260506003002 22 190 0.0 1.6 0.00 0.00 0.00 47 1012.6
20260506002502 22 190 0.0 4.8 0.00 0.00 0.00 46 1012.7
20260506002002 22 173 0.0 4.8 0.00 0.00 0.00 46 1012.7
20260506001500 22 175 0.0 1.6 0.00 0.00 0.00 45 1012.6
20260506001001 23 302 0.0 1.6 0.00 0.00 0.00 45 1012.7
20260506000506 23 302 0.0 1.6 0.00 0.00 0.00 44 1012.8
20260506000001 23 286 0.0 1.6 0.00 0.00 0.00 44 1012.8
20260505235504 23 279 0.0 3.2 0.00 0.00 0.00 43 1012.9
20260505235002 23 279 0.0 4.8 0.00 0.00 0.00 42 1012.9
20260505234502 23 219 1.6 6.4 0.00 0.00 0.00 43 1012.8
20260505234002 24 341 0.0 6.4 0.00 0.00 0.00 42 1012.8
20260505233458 24 262 0.0 6.4 0.00 0.00 0.00 41 1012.7
20260505233302 24 166 1.6 6.4 0.00 0.00 0.00 41 1012.5
20260505232457 24 127 0.0 3.2 0.00 0.00 0.00 42 1012.5
20260505231953 25 341 0.0 6.4 0.00 0.00 0.00 41 1012.4
20260505231454 25 171 0.0 6.4 0.00 0.00 0.00 41 1012.4
20260505231248 25 176 0.0 3.2 0.00 0.00 0.00 42 1012.4
20260505230447 25 182 1.6 9.7 0.00 0.00 0.00 41 1012.5
20260505225948 25 137 4.8 9.7 0.00 0.00 0.00 39 1012.4
20260505225446 25 168 3.2 6.4 0.00 0.00 0.00 40 1012.5
20260505224949 25 149 1.6 9.7 0.00 0.00 0.00 41 1012.5
20260505224444 25 182 3.2 9.7 0.00 0.00 0.00 41 1012.5
20260505224246 25 94 1.6 9.7 0.00 0.00 0.00 41 1012.6
20260505223443 25 63 3.2 9.7 0.00 0.00 0.00 41 1012.3
20260505222942 26 217 3.2 9.7 0.00 0.00 0.00 41 1012.4
20260505222444 26 161 3.2 8.0 0.00 0.00 0.00 41 1012.4
20260505221940 26 79 3.2 11.3 0.00 0.00 0.00 42 1012.3
20260505221442 26 252 3.2 11.3 0.00 0.00 0.00 42 1012.2
20260505221236 26 0 1.6 4.8 0.00 0.00 0.00 42 1012.1
20260505220800 26 141 1.6 8.0 0.00 0.00 0.00 42 1012.4
20260505215939 26 145 1.6 9.7 0.00 0.00 0.00 42 1012.5
20260505215733 26 158 3.2 9.7 0.00 0.00 0.00 40 1012.3
20260505214938 26 131 3.2 8.0 0.00 0.00 0.00 39 1012.4
20260505214438 26 223 1.6 4.8 0.00 0.00 0.00 41 1012.5
20260505214233 26 197 1.6 6.4 0.00 0.00 0.00 41 1012.5
20260505213433 26 329 3.2 6.4 0.00 0.00 0.00 39 1012.7
20260505212933 26 327 3.2 4.8 0.00 0.00 0.00 38 1012.6
20260505212436 27 189 1.6 6.4 0.00 0.00 0.00 40 1012.5
20260505211932 26 110 3.2 8.0 0.00 0.00 0.00 38 1012.5
20260505211431 26 116 3.2 17.7 0.00 0.00 0.00 38 1012.5
20260505210930 26 189 1.6 17.7 0.00 0.00 0.00 40 1012.7
20260505210431 27 269 1.6 9.7 0.00 0.00 0.00 38 1012.7
20260505205929 27 168 1.6 8.0 0.00 0.00 0.00 41 1012.8
20260505205431 26 289 3.2 9.7 0.00 0.00 0.00 41 1012.8
20260505204925 26 302 3.2 9.7 0.00 0.00 0.00 40 1012.9
20260505204426 27 164 3.2 8.0 0.00 0.00 0.00 41 1012.9
20260505203920 27 127 3.2 11.3 0.00 0.00 0.00 39 1013.0
20260505203419 27 148 1.6 11.3 0.00 0.00 0.00 41 1013.0
20260505202920 26 313 3.2 11.3 0.00 0.00 0.00 41 1013.0
20260505202416 27 145 3.2 8.0 0.00 0.00 0.00 40 1013.0
20260505201917 27 237 3.2 8.0 0.00 0.00 0.00 41 1013.1
20260505201720 27 245 3.2 6.4 0.00 0.00 0.00 40 1013.2
20260505200914 27 72 1.6 4.8 0.00 0.00 0.00 41 1013.5
20260505200709 27 183 0.0 4.8 0.00 0.00 0.00 39 1013.5
20260505195915 27 114 3.2 9.7 0.00 0.00 0.00 41 1013.4
20260505195417 27 299 4.8 9.7 0.00 0.00 0.00 38 1013.4
20260505194914 27 149 3.2 6.4 0.00 0.00 0.00 38 1013.4
20260505194414 27 137 4.8 16.1 0.00 0.00 0.00 40 1013.7
20260505193915 27 48 4.8 16.1 0.00 0.00 0.00 44 1013.7
20260505193413 26 0 3.2 6.4 0.00 0.00 0.00 42 1013.5
20260505192914 26 313 3.2 8.0 0.00 0.00 0.00 41 1013.8
20260505192414 27 96 3.2 8.0 0.00 0.00 0.00 43 1013.9
20260505192157 27 138 1.6 8.0 0.00 0.00 0.00 40 1013.9
20260505191413 26 266 1.6 8.0 0.00 0.00 0.00 42 1014.0
20260505191215 26 296 3.2 8.0 0.00 0.00 0.00 42 1014.0
20260505190414 26 166 1.6 6.4 0.00 0.00 0.00 40 1014.1
20260505185914 26 206 3.2 6.4 0.00 0.00 0.00 42 1014.1
20260505185706 26 51 3.2 6.4 0.00 0.00 0.00 42 1014.4
20260505184913 25 175 3.2 8.0 0.00 0.00 0.00 41 1014.3
20260505184414 25 107 3.2 8.0 0.00 0.00 0.00 39 1014.4
20260505183913 26 85 3.2 9.7 0.00 0.00 0.00 39 1014.5
20260505183414 26 148 3.2 9.7 0.00 0.00 0.00 42 1014.7
20260505182915 26 165 1.6 14.5 0.00 0.00 0.00 42 1014.8
20260505182731 26 137 6.4 14.5 0.00 0.00 0.00 39 1014.8
20260505181914 26 114 1.6 8.0 0.00 0.00 0.00 43 1014.9
20260505181413 26 286 3.2 6.4 0.00 0.00 0.00 41 1015.0
20260505180914 26 292 1.6 9.7 0.00 0.00 0.00 43 1015.1
20260505180714 26 199 3.2 9.7 0.00 0.00 0.00 39 1015.2
20260505175914 26 196 3.2 11.3 0.00 0.00 0.00 42 1015.3
20260505175728 26 306 1.6 11.3 0.00 0.00 0.00 43 1015.3
20260505174909 26 149 3.2 9.7 0.00 0.00 0.00 43 1015.4
20260505174409 25 306 1.6 11.3 0.00 0.00 0.00 41 1015.2
20260505174011 26 128 3.2 6.4 0.00 0.00 0.00 44 1015.5
20260505173951 26 144 4.8 11.3 0.00 0.00 0.00 42 1015.4
20260505172902 26 159 3.2 11.3 0.00 0.00 0.00 43 1015.4
20260505172401 26 145 1.6 11.3 0.00 0.00 0.00 45 1015.4
20260505172210 26 140 0.0 4.8 0.00 0.00 0.00 45 1015.4
20260505171401 26 283 1.6 9.7 0.00 0.00 0.00 44 1015.4
20260505171216 26 248 4.8 11.3 0.00 0.00 0.00 44 1015.5
20260505170402 25 217 3.2 11.3 0.00 0.00 0.00 46 1015.4
20260505165902 26 87 1.6 6.4 0.00 0.00 0.00 46 1015.4
20260505165402 26 336 1.6 4.8 0.00 0.00 0.00 44 1015.4
20260505164900 26 317 3.2 4.8 0.00 0.00 0.00 43 1015.5
20260505164358 26 97 3.2 6.4 0.00 0.00 0.00 40 1015.5
20260505164155 25 243 3.2 6.4 0.00 0.00 0.00 43 1015.6
20260505163353 26 173 3.2 6.4 0.00 0.00 0.00 44 1015.7
20260505163054 25 248 1.6 11.3 0.00 0.00 0.00 48 1015.8
20260505163022 25 324 1.6 4.8 0.00 0.00 0.00 49 1015.9
20260505161853 25 100 1.6 11.3 0.00 0.00 0.00 47 1016.0
20260505161348 24 145 3.2 8.0 0.00 0.00 0.00 45 1016.0
20260505160851 24 23 3.2 17.7 0.00 0.00 0.00 47 1016.0
20260505160348 24 202 4.8 17.7 0.00 0.00 0.00 44 1016.0
20260505153338 23 216 3.2 9.7 0.00 0.00 0.00 51 1016.0
20260505152839 23 99 1.6 9.7 0.00 0.00 0.00 53 1016.0
20260505152339 22 42 3.2 8.0 0.00 0.00 0.00 57 1016.1
20260505151837 22 137 4.8 8.0 0.00 0.00 0.00 54 1016.4
20260505151333 22 72 4.8 8.0 0.00 0.00 0.00 54 1016.3
20260505150904 22 82 3.2 8.0 0.00 0.00 0.00 56 1016.3
20260505150330 21 164 4.8 8.0 0.00 0.00 0.00 56 1016.3
20260505140314 19 152 1.6 4.8 0.00 0.00 0.00 63 1015.7
20260505130306 15 27 1.6 4.8 0.00 0.00 0.00 74 1015.2
20260505124803 14 79 0.0 3.2 0.00 0.00 0.00 76 1015.1
20260505124301 14 79 1.6 3.2 0.00 0.00 0.00 77 1015.1
20260505124058 14 76 1.6 3.2 0.00 0.00 0.00 77 1015.0
20260505123258 13 80 0.0 3.2 0.00 0.00 0.00 78 1015.1
20260505122758 13 47 0.0 1.6 0.00 0.00 0.00 79 1015.0
20260505122255 13 30 0.0 3.2 0.00 0.00 0.00 79 1015.0
20260505121752 12 37 0.0 3.2 0.00 0.00 0.00 80 1015.0
20260505121252 12 0 1.6 1.6 0.00 0.00 0.00 81 1015.1
20260505120752 12 310 0.0 1.6 0.00 0.00 0.00 84 1015.1
20260505120250 12 292 0.0 1.6 0.00 0.00 0.00 84 1014.9
20260505115750 11 292 0.0 0.0 0.00 0.00 0.00 85 1014.8
20260505115253 11 292 0.0 0.0 0.00 0.00 0.00 86 1014.8
20260505114744 11 292 0.0 0.0 0.00 0.00 0.00 86 1014.6
20260505114241 10 292 0.0 0.0 0.00 0.00 0.00 87 1014.6
20260505113742 10 292 0.0 0.0 0.00 0.00 0.00 87 1014.5
20260505113239 10 292 0.0 0.0 0.00 0.00 0.00 88 1014.4
20260505112740 9 292 0.0 0.0 0.00 0.00 0.00 88 1014.5
20260505112536 9 292 0.0 0.0 0.00 0.00 0.00 88 1014.3
20260505112115 9 292 0.0 0.0 0.00 0.00 0.00 88 1014.4
20260505111239 8 292 0.0 0.0 0.00 0.00 0.00 88 1014.4
20260505110739 8 292 0.0 0.0 0.00 0.00 0.00 88 1014.4
20260505110237 8 292 0.0 0.0 0.00 0.00 0.00 88 1014.4
20260505102108 9 292 0.0 3.2 0.00 0.00 0.00 86 1014.4
20260505101230 9 292 0.0 3.2 0.00 0.00 0.00 86 1014.4
20260505100731 9 292 0.0 0.0 0.00 0.00 0.00 85 1014.5
20260505100231 9 292 0.0 1.6 0.00 0.00 0.00 86 1014.3
20260505095730 9 292 0.0 1.6 0.00 0.00 0.00 86 1014.1
20260505095342 9 292 0.0 0.0 0.00 0.00 0.00 86 1014.1
20260505095317 9 292 0.0 1.6 0.00 0.00 0.00 86 1014.2
20260505094229 9 292 0.0 3.2 0.00 0.00 0.00 86 1014.1
20260505093730 9 292 0.0 3.2 0.00 0.00 0.00 86 1014.2
20260505093230 9 292 0.0 0.0 0.00 0.00 0.00 85 1014.3
20260505092820 9 292 0.0 0.0 0.00 0.00 0.00 85 1014.4
20260505092801 9 292 0.0 0.0 0.00 0.00 0.00 85 1014.4
20260505091722 9 292 0.0 0.0 0.00 0.00 0.00 85 1014.5
20260505091223 9 292 0.0 0.0 0.00 0.00 0.00 85 1014.5
20260505090718 9 292 0.0 0.0 0.00 0.00 0.00 85 1014.6
20260505090514 9 292 0.0 0.0 0.00 0.00 0.00 84 1014.7
20260505090028 10 292 0.0 3.2 0.00 0.00 0.00 84 1014.6
20260505085213 10 292 0.0 3.2 0.00 0.00 0.00 85 1014.6
20260505084712 9 292 0.0 3.2 0.00 0.00 0.00 85 1014.7
20260505084503 9 292 0.0 3.2 0.00 0.00 0.00 83 1014.7
20260505083716 9 269 0.0 1.6 0.00 0.00 0.00 83 1014.7
20260505083212 10 269 0.0 3.2 0.00 0.00 0.00 82 1014.6
20260505082713 10 269 0.0 3.2 0.00 0.00 0.00 82 1014.7
20260505082213 10 269 0.0 3.2 0.00 0.00 0.00 82 1014.5
20260505082036 10 269 0.0 3.2 0.00 0.00 0.00 82 1014.5
20260505081213 10 269 0.0 1.6 0.00 0.00 0.00 82 1014.4
20260505080712 10 147 0.0 1.6 0.00 0.00 0.00 81 1014.4
20260505080213 10 274 0.0 0.0 0.00 0.00 0.00 80 1014.2
20260505080023 10 274 0.0 0.0 0.00 0.00 0.00 80 1014.2
20260505075513 10 274 0.0 0.0 0.00 0.00 0.00 81 1014.2
20260505074712 10 274 0.0 0.0 0.00 0.00 0.00 80 1014.4
20260505074213 10 274 0.0 0.0 0.00 0.00 0.00 79 1014.3
20260505073713 10 274 0.0 1.6 0.00 0.00 0.00 79 1014.3
20260505073213 10 274 0.0 1.6 0.00 0.00 0.00 80 1014.3
20260505072713 10 274 0.0 0.0 0.00 0.00 0.00 80 1014.2
20260505072213 10 274 0.0 0.0 0.00 0.00 0.00 80 1014.2
20260505071713 10 274 0.0 0.0 0.00 0.00 0.00 79 1014.1
20260505071306 11 274 0.0 0.0 0.00 0.00 0.00 78 1014.2
20260505071247 10 274 0.0 0.0 0.00 0.00 0.00 78 1014.1
20260505070213 11 274 0.0 0.0 0.00 0.00 0.00 77 1014.2
20260505070027 11 274 0.0 1.6 0.00 0.00 0.00 78 1014.2
20260505065212 11 274 0.0 1.6 0.00 0.00 0.00 77 1014.1
20260505064712 11 274 0.0 0.0 0.00 0.00 0.00 75 1014.1
20260505064214 11 274 0.0 0.0 0.00 0.00 0.00 75 1014.2
20260505063712 11 274 0.0 0.0 0.00 0.00 0.00 75 1014.2
20260505063212 11 274 0.0 3.2 0.00 0.00 0.00 74 1014.4
20260505062713 11 274 0.0 3.2 0.00 0.00 0.00 75 1014.4
20260505062508 11 274 0.0 0.0 0.00 0.00 0.00 74 1014.3
20260505061712 11 274 0.0 0.0 0.00 0.00 0.00 75 1014.4
20260505061212 11 274 0.0 0.0 0.00 0.00 0.00 75 1014.4
20260505060712 11 274 0.0 0.0 0.00 0.00 0.00 75 1014.4
20260505060213 11 274 0.0 0.0 0.00 0.00 0.00 76 1014.4